Tracking 29528 objects as of 13-Sep-2024
HD Live streaming from Space Station
objects crossing your sky now

THOR ABLESTAR DEB

Track THOR ABLESTAR DEB now!
10-day predictions


NORAD ID: 124
Int'l Code: 1961-015J
Perigee: 730.4 km
Apogee: 843.1 km
Inclination: 66.5 °
Period: 100.4 minutes
Semi major axis: 7157 km
RCS: 0.1021 m2 (medium)
Launch date: June 29, 1961
Source: United States (US)
Launch site: AIR FORCE EASTERN TEST RANGE (AFETR)

Note: This is SATELLITE DEBRIS
Your satellite tracking list
Your tracking list is empty




NASA's NSSDC Master Catalog

Two Line Element Set (TLE):
1 00124U 61015J   24256.43612513  .00001735  00000-0  63395-3 0  9999
2 00124  66.5442 149.5447 0078727 222.9230 136.5709 14.33642122266701
Source of the keplerian elements: AFSPC